Time,TemperatureF,DewpointF,PressureIn,WindDirection,WindDirectionDegrees,WindSpeedMPH,WindSpeedGustMPH,Humidity,HourlyPrecipIn,Conditions,Clouds,dailyrainin,SoftwareType,DateUTC
2015-07-30 00:01:00,65.5,7.6,29.88,WSW,248,5.8,6.3,1,0.00,,,0.00,WUHU216HW,2015-07-30 05:01:00,
2015-07-30 00:06:00,65.5,7.6,29.88,WSW,248,4.0,6.0,1,0.00,,,0.00,WUHU216HW,2015-07-30 05:06:00,
2015-07-30 00:11:00,65.2,7.2,29.88,SW,225,4.0,6.0,1,0.00,,,0.00,WUHU216HW,2015-07-30 05:11:00,
2015-07-30 00:16:00,65.2,7.2,29.88,WSW,248,5.1,6.3,1,0.00,,,0.00,WUHU216HW,2015-07-30 05:16:00,
2015-07-30 00:21:00,65.2,7.2,29.88,WSW,248,3.8,6.3,1,0.00,,,0.00,WUHU216HW,2015-07-30 05:21:00,
2015-07-30 00:26:00,65.0,7.1,29.88,WSW,248,4.7,5.4,1,0.00,,,0.00,WUHU216HW,2015-07-30 05:26:00,
2015-07-30 00:31:00,65.0,7.1,29.88,WSW,248,4.9,5.6,1,0.00,,,0.00,WUHU216HW,2015-07-30 05:31:00,
2015-07-30 00:36:00,65.0,7.1,29.87,WSW,248,5.6,6.0,1,0.00,,,0.00,WUHU216HW,2015-07-30 05:36:00,
2015-07-30 00:41:00,64.8,6.9,29.87,WSW,248,6.3,6.3,1,0.00,,,0.00,WUHU216HW,2015-07-30 05:41:00,
2015-07-30 00:46:00,64.6,6.9,29.87,WSW,248,4.7,6.3,1,0.00,,,0.00,WUHU216HW,2015-07-30 05:46:00,
2015-07-30 00:51:00,64.4,6.7,29.87,SW,225,4.7,6.9,1,0.00,,,0.00,WUHU216HW,2015-07-30 05:51:00,
2015-07-30 00:56:00,64.4,6.7,29.88,WSW,248,4.0,6.9,1,0.00,,,0.00,WUHU216HW,2015-07-30 05:56:00,
2015-07-30 01:01:00,64.3,6.6,29.87,SW,225,3.4,6.3,1,0.00,,,0.00,WUHU216HW,2015-07-30 06:01:00,
2015-07-30 01:06:00,64.1,6.4,29.88,SW,225,3.1,6.3,1,0.00,,,0.00,WUHU216HW,2015-07-30 06:06:00,
2015-07-30 01:11:00,63.9,6.3,29.88,SW,225,3.4,4.9,1,0.00,,,0.00,WUHU216HW,2015-07-30 06:11:00,
2015-07-30 01:16:00,63.9,6.3,29.87,WSW,248,4.3,4.9,1,0.00,,,0.00,WUHU216HW,2015-07-30 06:16:00,
2015-07-30 01:21:00,63.7,6.1,29.87,WSW,248,3.4,5.4,1,0.00,,,0.00,WUHU216HW,2015-07-30 06:21:00,
2015-07-30 01:26:00,63.5,6.0,29.87,WSW,248,3.8,5.4,1,0.00,,,0.00,WUHU216HW,2015-07-30 06:26:00,
2015-07-30 01:31:00,63.4,6.0,29.88,WSW,248,4.0,5.4,1,0.00,,,0.00,WUHU216HW,2015-07-30 06:31:00,
2015-07-30 01:36:00,63.4,6.0,29.88,WSW,248,3.8,5.4,1,0.00,,,0.00,WUHU216HW,2015-07-30 06:36:00,
2015-07-30 01:41:00,63.2,5.8,29.87,SW,225,2.5,4.9,1,0.00,,,0.00,WUHU216HW,2015-07-30 06:41:00,
2015-07-30 01:46:00,63.0,5.7,29.88,SW,225,2.0,4.9,1,0.00,,,0.00,WUHU216HW,2015-07-30 06:46:00,
2015-07-30 01:56:00,62.8,5.5,29.87,WSW,248,3.8,4.5,1,0.00,,,0.00,WUHU216HW,2015-07-30 06:56:00,
2015-07-30 02:01:00,62.6,5.4,29.87,WSW,248,3.4,4.5,1,0.00,,,0.00,WUHU216HW,2015-07-30 07:01:00,
2015-07-30 02:06:00,62.3,5.1,29.87,WSW,248,4.0,4.3,1,0.00,,,0.00,WUHU216HW,2015-07-30 07:06:00,
2015-07-30 02:11:00,62.3,5.1,29.87,SW,225,2.7,4.0,1,0.00,,,0.00,WUHU216HW,2015-07-30 07:11:00,
2015-07-30 02:16:00,62.3,5.1,29.87,SSW,203,2.2,4.3,1,0.00,,,0.00,WUHU216HW,2015-07-30 07:16:00,
2015-07-30 02:21:00,62.1,5.0,29.87,WSW,248,2.7,4.3,1,0.00,,,0.00,WUHU216HW,2015-07-30 07:21:00,
2015-07-30 02:26:00,61.7,4.7,29.87,WSW,248,3.4,4.3,1,0.00,,,0.00,WUHU216HW,2015-07-30 07:26:00,
2015-07-30 02:31:00,61.9,4.9,29.87,SW,225,1.6,4.3,1,0.00,,,0.00,WUHU216HW,2015-07-30 07:31:00,
2015-07-30 02:36:00,62.1,5.0,29.87,West,270,2.9,4.0,1,0.00,,,0.00,WUHU216HW,2015-07-30 07:36:00,
2015-07-30 02:41:00,62.1,5.0,29.87,WSW,248,2.9,4.0,1,0.00,,,0.00,WUHU216HW,2015-07-30 07:41:00,
2015-07-30 02:46:00,61.9,4.9,29.87,WSW,248,4.7,4.7,1,0.00,,,0.00,WUHU216HW,2015-07-30 07:46:00,
2015-07-30 02:51:00,61.9,4.9,29.87,WSW,248,2.7,5.8,1,0.00,,,0.00,WUHU216HW,2015-07-30 07:51:00,
2015-07-30 02:56:00,61.9,4.9,29.87,WSW,248,3.4,5.8,1,0.00,,,0.00,WUHU216HW,2015-07-30 07:56:00,
2015-07-30 03:01:00,62.3,5.1,29.87,West,270,1.6,4.3,1,0.00,,,0.00,WUHU216HW,2015-07-30 08:01:00,
2015-07-30 03:06:00,62.1,5.0,29.88,WSW,248,0.4,4.3,1,0.00,,,0.00,WUHU216HW,2015-07-30 08:06:00,
2015-07-30 03:11:00,61.9,4.9,29.88,WSW,248,1.1,2.5,1,0.00,,,0.00,WUHU216HW,2015-07-30 08:11:00,
2015-07-30 03:16:00,61.6,4.5,29.88,WSW,248,2.2,3.4,1,0.00,,,0.00,WUHU216HW,2015-07-30 08:16:00,
2015-07-30 03:21:00,61.2,4.2,29.88,SW,225,1.3,3.4,1,0.00,,,0.00,WUHU216HW,2015-07-30 08:21:00,
2015-07-30 03:26:00,60.8,4.0,29.87,SW,225,1.8,3.4,1,0.00,,,0.00,WUHU216HW,2015-07-30 08:26:00,
2015-07-30 03:31:00,60.7,3.8,29.87,WSW,248,2.9,2.9,1,0.00,,,0.00,WUHU216HW,2015-07-30 08:31:00,
2015-07-30 03:36:00,60.5,3.7,29.87,SW,225,2.7,3.6,1,0.00,,,0.00,WUHU216HW,2015-07-30 08:36:00,
2015-07-30 03:41:00,60.3,3.5,29.88,WSW,248,2.5,4.3,1,0.00,,,0.00,WUHU216HW,2015-07-30 08:41:00,
2015-07-30 03:46:00,60.1,3.4,29.88,WSW,248,3.4,4.3,1,0.00,,,0.00,WUHU216HW,2015-07-30 08:46:00,
2015-07-30 03:51:00,60.1,3.4,29.88,SW,225,3.1,4.7,1,0.00,,,0.00,WUHU216HW,2015-07-30 08:51:00,
2015-07-30 03:56:00,60.1,3.4,29.88,WSW,248,4.0,4.7,1,0.00,,,0.00,WUHU216HW,2015-07-30 08:56:00,
2015-07-30 04:01:00,60.1,3.4,29.88,SW,225,3.6,4.5,1,0.00,,,0.00,WUHU216HW,2015-07-30 09:01:00,
2015-07-30 04:06:00,60.1,3.4,29.88,WSW,248,2.9,4.0,1,0.00,,,0.00,WUHU216HW,2015-07-30 09:06:00,
2015-07-30 04:11:00,60.1,3.4,29.88,WSW,248,2.7,4.0,1,0.00,,,0.00,WUHU216HW,2015-07-30 09:11:00,
2015-07-30 04:16:00,60.5,3.7,29.88,West,270,2.5,4.0,1,0.00,,,0.00,WUHU216HW,2015-07-30 09:16:00,
2015-07-30 04:21:00,60.5,3.7,29.88,WSW,248,2.7,4.0,1,0.00,,,0.00,WUHU216HW,2015-07-30 09:21:00,
2015-07-30 04:26:00,60.8,4.0,29.88,WSW,248,3.4,4.0,1,0.00,,,0.00,WUHU216HW,2015-07-30 09:26:00,
2015-07-30 04:31:00,61.0,4.2,29.88,WSW,248,2.7,5.1,1,0.00,,,0.00,WUHU216HW,2015-07-30 09:31:00,
2015-07-30 04:36:00,61.4,4.4,29.88,WSW,248,2.2,5.4,1,0.00,,,0.00,WUHU216HW,2015-07-30 09:36:00,
2015-07-30 04:41:00,61.9,4.9,29.88,WSW,248,4.0,6.5,1,0.00,,,0.00,WUHU216HW,2015-07-30 09:41:00,
2015-07-30 04:46:00,61.9,4.9,29.88,WSW,248,3.8,6.5,1,0.00,,,0.00,WUHU216HW,2015-07-30 09:46:00,
2015-07-30 04:51:00,61.9,4.9,29.88,West,270,2.9,6.0,1,0.00,,,0.00,WUHU216HW,2015-07-30 09:51:00,
2015-07-30 04:56:00,61.7,4.7,29.88,West,270,2.5,5.8,1,0.00,,,0.00,WUHU216HW,2015-07-30 09:56:00,
2015-07-30 05:01:00,61.7,4.7,29.88,WSW,248,2.2,5.8,1,0.00,,,0.00,WUHU216HW,2015-07-30 10:01:00,
2015-07-30 05:06:00,61.6,4.5,29.88,WSW,248,2.0,5.1,1,0.00,,,0.00,WUHU216HW,2015-07-30 10:06:00,
2015-07-30 05:16:00,61.4,4.4,29.88,WSW,248,3.8,4.9,1,0.00,,,0.00,WUHU216HW,2015-07-30 10:16:00,
2015-07-30 05:21:00,61.4,4.4,29.88,WSW,248,3.6,4.7,1,0.00,,,0.00,WUHU216HW,2015-07-30 10:21:00,
2015-07-30 05:26:00,61.2,4.2,29.88,WSW,248,2.0,4.5,1,0.00,,,0.00,WUHU216HW,2015-07-30 10:26:00,
2015-07-30 05:31:00,60.8,4.0,29.88,WSW,248,4.0,4.7,1,0.00,,,0.00,WUHU216HW,2015-07-30 10:31:00,
2015-07-30 05:36:00,60.8,4.0,29.89,WSW,248,3.4,5.1,1,0.00,,,0.00,WUHU216HW,2015-07-30 10:36:00,
2015-07-30 05:41:00,60.8,4.0,29.89,WSW,248,2.5,6.7,1,0.00,,,0.00,WUHU216HW,2015-07-30 10:41:00,
2015-07-30 05:46:00,61.4,4.4,29.89,WSW,248,4.3,6.7,1,0.00,,,0.00,WUHU216HW,2015-07-30 10:46:00,
2015-07-30 05:50:00,61.4,4.4,29.89,SW,225,2.9,5.6,1,0.00,,,0.00,WUHU216HW,2015-07-30 10:50:00,
2015-07-30 05:55:00,61.2,4.2,29.89,WSW,248,3.4,4.3,1,0.00,,,0.00,WUHU216HW,2015-07-30 10:55:00,
2015-07-30 06:00:00,61.2,4.2,29.89,SW,225,3.4,5.6,1,0.00,,,0.00,WUHU216HW,2015-07-30 11:00:00,
2015-07-30 06:05:00,61.2,4.2,29.89,WSW,248,2.9,5.6,1,0.00,,,0.00,WUHU216HW,2015-07-30 11:05:00,
2015-07-30 06:10:00,61.2,4.2,29.89,WSW,248,4.0,4.7,1,0.00,,,0.00,WUHU216HW,2015-07-30 11:10:00,
2015-07-30 06:15:00,61.4,4.4,29.89,WSW,248,4.3,5.8,1,0.00,,,0.00,WUHU216HW,2015-07-30 11:15:00,
2015-07-30 06:20:00,62.6,5.4,29.89,SW,225,5.4,5.8,1,0.00,,,0.00,WUHU216HW,2015-07-30 11:20:00,
2015-07-30 06:25:00,64.6,6.9,29.90,WSW,248,2.7,6.9,1,0.00,,,0.00,WUHU216HW,2015-07-30 11:25:00,
2015-07-30 06:35:00,67.3,9.0,29.90,WSW,248,5.4,5.4,1,0.00,,,0.00,WUHU216HW,2015-07-30 11:35:00,
2015-07-30 06:40:00,68.8,10.1,29.90,WSW,248,3.1,6.9,1,0.00,,,0.00,WUHU216HW,2015-07-30 11:40:00,
2015-07-30 06:45:00,69.8,10.8,29.90,WSW,248,4.0,6.9,1,0.00,,,0.00,WUHU216HW,2015-07-30 11:45:00,
2015-07-30 06:50:00,70.9,11.7,29.90,WSW,248,5.8,6.3,1,0.00,,,0.00,WUHU216HW,2015-07-30 11:50:00,
2015-07-30 06:55:00,72.0,12.5,29.90,WSW,248,4.0,6.9,1,0.00,,,0.00,WUHU216HW,2015-07-30 11:55:00,
2015-07-30 07:00:00,73.6,13.8,29.91,SW,225,4.9,6.9,1,0.00,,,0.00,WUHU216HW,2015-07-30 12:00:00,
2015-07-30 07:06:00,74.5,14.4,29.91,WSW,248,3.8,6.9,1,0.00,,,0.00,WUHU216HW,2015-07-30 12:06:00,
2015-07-30 07:11:00,75.2,14.9,29.91,West,270,3.1,6.9,1,0.00,,,0.00,WUHU216HW,2015-07-30 12:11:00,
2015-07-30 07:16:00,74.2,14.2,29.91,WNW,293,7.8,8.3,1,0.00,,,0.00,WUHU216HW,2015-07-30 12:16:00,
2015-07-30 07:21:00,73.4,13.7,29.90,WSW,248,5.1,8.7,1,0.00,,,0.00,WUHU216HW,2015-07-30 12:21:00,
2015-07-30 07:26:00,71.6,12.2,29.90,WSW,248,5.6,8.7,1,0.00,,,0.00,WUHU216HW,2015-07-30 12:26:00,
2015-07-30 07:31:00,70.7,11.5,29.90,WSW,248,5.4,8.3,1,0.00,,,0.00,WUHU216HW,2015-07-30 12:31:00,
2015-07-30 07:36:00,70.2,11.1,29.90,WNW,293,3.4,7.8,1,0.00,,,0.00,WUHU216HW,2015-07-30 12:36:00,
2015-07-30 07:41:00,69.8,10.8,29.90,WSW,248,6.3,7.8,1,0.00,,,0.00,WUHU216HW,2015-07-30 12:41:00,
2015-07-30 07:51:00,70.0,11.0,29.90,West,270,5.1,8.1,1,0.00,,,0.00,WUHU216HW,2015-07-30 12:51:00,
2015-07-30 07:56:00,70.2,11.1,29.90,West,270,6.3,8.1,1,0.00,,,0.00,WUHU216HW,2015-07-30 12:56:00,
2015-07-30 08:01:00,70.2,11.1,29.90,West,270,3.8,7.6,1,0.00,,,0.00,WUHU216HW,2015-07-30 13:01:00,
2015-07-30 08:06:00,70.2,11.1,29.90,West,270,1.8,7.4,1,0.00,,,0.00,WUHU216HW,2015-07-30 13:06:00,
2015-07-30 08:11:00,70.2,11.1,29.91,WSW,248,6.5,7.6,1,0.00,,,0.00,WUHU216HW,2015-07-30 13:11:00,
2015-07-30 08:16:00,70.4,11.3,29.91,West,270,6.9,10.1,1,0.00,,,0.00,WUHU216HW,2015-07-30 13:16:00,
2015-07-30 08:21:00,70.6,11.3,29.91,WSW,248,3.4,10.1,1,0.00,,,0.00,WUHU216HW,2015-07-30 13:21:00,
2015-07-30 08:26:00,70.9,11.7,29.90,West,270,6.9,9.8,1,0.00,,,0.00,WUHU216HW,2015-07-30 13:26:00,
2015-07-30 08:31:00,71.3,12.0,29.90,NW,315,3.6,9.8,1,0.00,,,0.00,WUHU216HW,2015-07-30 13:31:00,
2015-07-30 08:36:00,71.8,12.4,29.91,West,270,7.4,9.6,1,0.00,,,0.00,WUHU216HW,2015-07-30 13:36:00,
2015-07-30 08:41:00,72.4,12.8,29.91,WSW,248,4.9,8.5,1,0.00,,,0.00,WUHU216HW,2015-07-30 13:41:00,
2015-07-30 08:46:00,72.7,13.2,29.91,WSW,248,3.6,8.5,1,0.00,,,0.00,WUHU216HW,2015-07-30 13:46:00,
2015-07-30 08:51:00,73.3,13.5,29.91,WNW,293,5.4,8.5,1,0.00,,,0.00,WUHU216HW,2015-07-30 13:51:00,
2015-07-30 09:01:00,74.0,14.0,29.91,WSW,248,8.5,10.3,1,0.00,,,0.00,WUHU216HW,2015-07-30 14:01:00,
2015-07-30 09:06:00,74.5,14.4,29.91,NW,315,7.4,10.3,1,0.00,,,0.00,WUHU216HW,2015-07-30 14:06:00,
2015-07-30 09:11:00,75.1,14.9,29.91,WNW,293,8.5,9.4,1,0.00,,,0.00,WUHU216HW,2015-07-30 14:11:00,
2015-07-30 09:16:00,75.1,14.9,29.91,WSW,248,4.3,9.2,1,0.00,,,0.00,WUHU216HW,2015-07-30 14:16:00,
2015-07-30 09:21:00,75.2,14.9,29.91,WSW,248,7.6,9.4,1,0.00,,,0.00,WUHU216HW,2015-07-30 14:21:00,
2015-07-30 09:26:00,75.8,15.4,29.91,SW,225,8.1,10.5,1,0.00,,,0.00,WUHU216HW,2015-07-30 14:26:00,
2015-07-30 09:31:00,76.3,15.9,29.91,West,270,6.3,10.7,1,0.00,,,0.00,WUHU216HW,2015-07-30 14:31:00,
2015-07-30 09:36:00,76.9,16.2,29.91,WNW,293,8.3,10.7,1,0.00,,,0.00,WUHU216HW,2015-07-30 14:36:00,
2015-07-30 09:41:00,76.9,16.2,29.91,SSW,203,8.7,10.3,1,0.00,,,0.00,WUHU216HW,2015-07-30 14:41:00,
2015-07-30 09:46:00,77.0,16.4,29.91,WSW,248,10.7,10.7,1,0.00,,,0.00,WUHU216HW,2015-07-30 14:46:00,
2015-07-30 09:50:00,77.6,16.7,29.91,WNW,293,6.9,11.4,1,0.00,,,0.00,WUHU216HW,2015-07-30 14:50:00,
2015-07-30 09:55:00,77.9,17.0,29.91,WSW,248,11.6,12.1,1,0.00,,,0.00,WUHU216HW,2015-07-30 14:55:00,
2015-07-30 10:00:00,78.1,17.1,29.91,West,270,9.2,12.1,1,0.00,,,0.00,WUHU216HW,2015-07-30 15:00:00,
2015-07-30 10:05:00,78.3,17.3,29.91,WSW,248,7.8,13.9,1,0.00,,,0.00,WUHU216HW,2015-07-30 15:05:00,
2015-07-30 10:10:00,78.5,17.4,29.91,West,270,6.3,13.9,1,0.00,,,0.00,WUHU216HW,2015-07-30 15:10:00,
2015-07-30 10:15:00,78.8,17.6,29.91,WSW,248,8.5,12.8,1,0.00,,,0.00,WUHU216HW,2015-07-30 15:15:00,
2015-07-30 10:20:00,79.2,17.9,29.91,WSW,248,7.6,12.3,1,0.00,,,0.00,WUHU216HW,2015-07-30 15:20:00,
2015-07-30 10:25:00,79.2,17.9,29.91,West,270,14.3,24.4,1,0.00,,,0.00,WUHU216HW,2015-07-30 15:25:00,
2015-07-30 10:30:00,79.6,18.2,29.91,NW,315,15.0,24.4,1,0.00,,,0.00,WUHU216HW,2015-07-30 15:30:00,
2015-07-30 10:35:00,79.6,18.2,29.91,West,270,10.5,21.0,1,0.00,,,0.00,WUHU216HW,2015-07-30 15:35:00,
2015-07-30 10:40:00,79.9,18.6,29.91,WSW,248,10.3,21.5,1,0.00,,,0.00,WUHU216HW,2015-07-30 15:40:00,
2015-07-30 10:45:00,80.1,18.6,29.92,WNW,293,8.5,23.7,3,0.00,,,0.00,WUHU216HW,2015-07-30 15:45:00,
2015-07-30 10:50:00,80.3,18.8,29.91,NE,45,7.4,23.7,6,0.00,,,0.00,WUHU216HW,2015-07-30 15:50:00,
2015-07-30 10:55:00,80.6,19.1,29.91,WNW,293,19.2,23.7,7,0.00,,,0.00,WUHU216HW,2015-07-30 15:55:00,
2015-07-30 11:00:00,81.0,19.4,29.92,WSW,248,12.5,23.7,5,0.00,,,0.00,WUHU216HW,2015-07-30 16:00:00,
2015-07-30 11:05:00,81.4,19.6,29.92,WSW,248,9.2,20.1,7,0.00,,,0.00,WUHU216HW,2015-07-30 16:05:00,
2015-07-30 11:10:00,81.5,23.2,29.92,West,270,9.2,19.9,12,0.00,,,0.00,WUHU216HW,2015-07-30 16:10:00,
2015-07-30 11:15:00,81.5,31.7,29.92,WNW,293,5.4,13.4,17,0.00,,,0.00,WUHU216HW,2015-07-30 16:15:00,
2015-07-30 11:20:00,81.7,25.0,29.91,SSW,203,8.5,13.4,13,0.00,,,0.00,WUHU216HW,2015-07-30 16:20:00,
2015-07-30 11:25:00,82.3,30.5,29.92,WSW,248,4.7,14.8,16,0.00,,,0.00,WUHU216HW,2015-07-30 16:25:00,
2015-07-30 11:30:00,82.8,38.8,29.92,NNW,338,5.8,14.8,21,0.00,,,0.00,WUHU216HW,2015-07-30 16:30:00,
2015-07-30 11:35:00,82.4,39.5,29.92,West,270,10.5,14.3,22,0.00,,,0.00,WUHU216HW,2015-07-30 16:35:00,
2015-07-30 11:40:00,82.4,39.5,29.92,WNW,293,5.1,13.6,22,0.00,,,0.00,WUHU216HW,2015-07-30 16:40:00,
2015-07-30 11:45:00,82.4,41.6,29.91,West,270,5.8,14.1,24,0.00,,,0.00,WUHU216HW,2015-07-30 16:45:00,
2015-07-30 11:50:00,82.4,39.5,29.91,WNW,293,7.6,14.1,22,0.00,,,0.00,WUHU216HW,2015-07-30 16:50:00,
2015-07-30 11:55:00,82.8,39.8,29.92,SW,225,10.5,15.0,22,0.00,,,0.00,WUHU216HW,2015-07-30 16:55:00,
2015-07-30 12:00:00,83.0,43.1,29.92,West,270,15.0,15.0,25,0.00,,,0.00,WUHU216HW,2015-07-30 17:00:00,
2015-07-30 12:10:00,84.1,45.1,29.92,West,270,9.2,12.8,26,0.00,,,0.00,WUHU216HW,2015-07-30 17:10:00,
2015-07-30 12:15:00,83.2,46.5,29.91,West,270,7.6,18.1,28,0.00,,,0.00,WUHU216HW,2015-07-30 17:15:00,
2015-07-30 12:20:00,83.3,44.5,29.91,WSW,248,11.0,18.1,26,0.00,,,0.00,WUHU216HW,2015-07-30 17:20:00,
2015-07-30 12:25:00,83.7,46.9,29.91,WNW,293,13.6,13.6,28,0.00,,,0.00,WUHU216HW,2015-07-30 17:25:00,
2015-07-30 12:30:00,84.4,45.5,29.91,WSW,248,6.9,13.6,26,0.00,,,0.00,WUHU216HW,2015-07-30 17:30:00,
2015-07-30 12:35:00,85.0,47.0,29.91,West,270,3.4,13.6,27,0.00,,,0.00,WUHU216HW,2015-07-30 17:35:00,
2015-07-30 12:40:00,84.8,46.8,29.91,West,270,2.9,12.3,27,0.00,,,0.00,WUHU216HW,2015-07-30 17:40:00,
2015-07-30 12:45:00,84.6,48.8,29.91,SW,225,11.0,15.9,29,0.00,,,0.00,WUHU216HW,2015-07-30 17:45:00,
2015-07-30 12:50:00,85.0,48.0,29.91,NNW,338,5.1,15.9,28,0.00,,,0.00,WUHU216HW,2015-07-30 17:50:00,
2015-07-30 12:55:00,85.5,50.7,29.91,West,270,11.2,12.5,30,0.00,,,0.00,WUHU216HW,2015-07-30 17:55:00,
2015-07-30 13:00:00,85.1,50.3,29.91,WSW,248,10.7,14.3,30,0.00,,,0.00,WUHU216HW,2015-07-30 18:00:00,
2015-07-30 13:05:00,85.0,50.1,29.91,WSW,248,10.3,14.3,30,0.00,,,0.00,WUHU216HW,2015-07-30 18:05:00,
2015-07-30 13:10:00,85.7,50.8,29.91,NW,315,15.4,15.4,30,0.00,,,0.00,WUHU216HW,2015-07-30 18:10:00,
2015-07-30 13:15:00,86.0,51.1,29.91,WSW,248,5.1,15.4,30,0.00,,,0.00,WUHU216HW,2015-07-30 18:15:00,
2015-07-30 13:20:00,85.3,52.0,29.91,NNW,338,13.4,18.3,32,0.00,,,0.00,WUHU216HW,2015-07-30 18:20:00,
2015-07-30 13:25:00,84.8,51.6,29.91,WNW,293,9.4,18.3,32,0.00,,,0.00,WUHU216HW,2015-07-30 18:25:00,
2015-07-30 13:30:00,85.3,52.0,29.91,WNW,293,5.4,17.0,32,0.00,,,0.00,WUHU216HW,2015-07-30 18:30:00,
2015-07-30 13:40:00,85.3,52.0,29.91,WNW,293,16.3,16.3,32,0.00,,,0.00,WUHU216HW,2015-07-30 18:40:00,
2015-07-30 13:45:00,85.3,52.8,29.91,WNW,293,6.3,16.3,33,0.00,,,0.00,WUHU216HW,2015-07-30 18:45:00,
2015-07-30 13:50:00,86.4,53.0,29.90,WSW,248,7.4,16.3,32,0.00,,,0.00,WUHU216HW,2015-07-30 18:50:00,
2015-07-30 13:55:00,86.0,52.8,29.90,WSW,248,17.2,17.2,32,0.00,,,0.00,WUHU216HW,2015-07-30 18:55:00,
2015-07-30 14:00:00,85.5,53.0,29.90,WNW,293,9.8,17.2,33,0.00,,,0.00,WUHU216HW,2015-07-30 19:00:00,
2015-07-30 14:10:00,86.2,52.8,29.90,WSW,248,13.2,14.1,32,0.00,,,0.00,WUHU216HW,2015-07-30 19:10:00,
2015-07-30 14:15:00,86.4,53.8,29.90,WSW,248,8.3,15.0,33,0.00,,,0.00,WUHU216HW,2015-07-30 19:15:00,
2015-07-30 14:20:00,86.0,53.5,29.90,West,270,7.6,15.0,33,0.00,,,0.00,WUHU216HW,2015-07-30 19:20:00,
2015-07-30 14:25:00,86.6,53.9,29.90,SW,225,12.1,15.7,33,0.00,,,0.00,WUHU216HW,2015-07-30 19:25:00,
2015-07-30 14:30:00,86.8,54.1,29.90,WNW,293,5.6,16.8,33,0.00,,,0.00,WUHU216HW,2015-07-30 19:30:00,
2015-07-30 14:35:00,86.8,54.1,29.90,NNW,338,10.5,16.8,33,0.00,,,0.00,WUHU216HW,2015-07-30 19:35:00,
2015-07-30 14:40:00,85.7,53.2,29.89,WSW,248,6.5,14.3,33,0.00,,,0.00,WUHU216HW,2015-07-30 19:40:00,
2015-07-30 14:45:00,85.7,53.2,29.89,WSW,248,10.5,15.7,33,0.00,,,0.00,WUHU216HW,2015-07-30 19:45:00,
2015-07-30 14:50:00,86.2,53.6,29.89,NW,315,5.4,15.7,33,0.00,,,0.00,WUHU216HW,2015-07-30 19:50:00,
2015-07-30 14:55:00,86.4,53.8,29.89,WSW,248,9.2,13.9,33,0.00,,,0.00,WUHU216HW,2015-07-30 19:55:00,
2015-07-30 15:00:00,86.0,53.5,29.89,West,270,11.6,13.4,33,0.00,,,0.00,WUHU216HW,2015-07-30 20:00:00,
2015-07-30 15:05:00,86.0,54.3,29.89,West,270,8.1,15.9,34,0.00,,,0.00,WUHU216HW,2015-07-30 20:05:00,
2015-07-30 15:10:00,86.8,53.3,29.89,NW,315,12.5,16.3,32,0.00,,,0.00,WUHU216HW,2015-07-30 20:10:00,
2015-07-30 15:15:00,86.8,53.3,29.89,NW,315,15.7,16.3,32,0.00,,,0.00,WUHU216HW,2015-07-30 20:15:00,
2015-07-30 15:20:00,85.9,53.4,29.88,NW,315,8.7,16.3,33,0.00,,,0.00,WUHU216HW,2015-07-30 20:20:00,
2015-07-30 15:25:00,85.5,53.0,29.88,NW,315,10.1,16.1,33,0.00,,,0.00,WUHU216HW,2015-07-30 20:25:00,
2015-07-30 15:30:00,86.0,54.3,29.88,WNW,293,4.7,16.1,34,0.00,,,0.00,WUHU216HW,2015-07-30 20:30:00,
2015-07-30 15:35:00,86.8,54.9,29.88,West,270,6.5,15.7,34,0.00,,,0.00,WUHU216HW,2015-07-30 20:35:00,
2015-07-30 15:40:00,86.4,54.6,29.88,NW,315,6.0,15.0,34,0.00,,,0.00,WUHU216HW,2015-07-30 20:40:00,
2015-07-30 15:45:00,86.6,54.7,29.88,West,270,6.3,15.0,34,0.00,,,0.00,WUHU216HW,2015-07-30 20:45:00,
2015-07-30 15:50:00,87.1,55.2,29.88,WNW,293,4.9,13.6,34,0.00,,,0.00,WUHU216HW,2015-07-30 20:50:00,
2015-07-30 15:55:00,87.3,54.5,29.88,West,270,8.9,13.6,33,0.00,,,0.00,WUHU216HW,2015-07-30 20:55:00,
2015-07-30 16:00:00,86.9,54.3,29.88,NNW,338,9.2,14.5,33,0.00,,,0.00,WUHU216HW,2015-07-30 21:00:00,
2015-07-30 16:05:00,87.1,54.4,29.88,NW,315,12.1,17.2,33,0.00,,,0.00,WUHU216HW,2015-07-30 21:05:00,
2015-07-30 16:10:00,87.1,54.4,29.87,WNW,293,7.8,17.2,33,0.00,,,0.00,WUHU216HW,2015-07-30 21:10:00,
2015-07-30 16:15:00,86.2,52.8,29.87,WNW,293,15.0,17.0,32,0.00,,,0.00,WUHU216HW,2015-07-30 21:15:00,
2015-07-30 16:20:00,86.0,54.3,29.87,WNW,293,4.9,17.0,34,0.00,,,0.00,WUHU216HW,2015-07-30 21:20:00,
2015-07-30 16:25:00,86.6,53.9,29.87,WSW,248,7.8,18.6,33,0.00,,,0.00,WUHU216HW,2015-07-30 21:25:00,
2015-07-30 16:30:00,87.1,55.2,29.87,WNW,293,5.6,18.6,34,0.00,,,0.00,WUHU216HW,2015-07-30 21:30:00,
2015-07-30 16:35:00,86.0,53.5,29.87,NW,315,16.6,16.6,33,0.00,,,0.00,WUHU216HW,2015-07-30 21:35:00,
2015-07-30 16:40:00,85.5,53.8,29.87,West,270,14.3,16.6,34,0.00,,,0.00,WUHU216HW,2015-07-30 21:40:00,
2015-07-30 16:45:00,86.0,54.3,29.87,SW,225,8.9,14.3,34,0.00,,,0.00,WUHU216HW,2015-07-30 21:45:00,
2015-07-30 16:50:00,86.9,54.3,29.87,NNW,338,6.9,14.3,33,0.00,,,0.00,WUHU216HW,2015-07-30 21:50:00,
2015-07-30 16:55:00,86.4,54.6,29.87,WSW,248,9.2,14.8,34,0.00,,,0.00,WUHU216HW,2015-07-30 21:55:00,
2015-07-30 17:00:00,86.0,54.3,29.87,NW,315,10.1,14.8,34,0.00,,,0.00,WUHU216HW,2015-07-30 22:00:00,
2015-07-30 17:05:00,86.2,53.6,29.87,NNW,338,7.2,13.0,33,0.00,,,0.00,WUHU216HW,2015-07-30 22:05:00,
2015-07-30 17:10:00,86.4,53.8,29.87,West,270,8.5,15.2,33,0.00,,,0.00,WUHU216HW,2015-07-30 22:10:00,
2015-07-30 17:15:00,86.0,54.3,29.87,West,270,8.3,15.2,34,0.00,,,0.00,WUHU216HW,2015-07-30 22:15:00,
2015-07-30 17:20:00,86.0,53.5,29.87,West,270,6.3,14.3,33,0.00,,,0.00,WUHU216HW,2015-07-30 22:20:00,
2015-07-30 17:25:00,85.7,54.0,29.87,SW,225,8.3,15.2,34,0.00,,,0.00,WUHU216HW,2015-07-30 22:25:00,
2015-07-30 17:30:00,86.0,53.5,29.87,NW,315,8.5,15.2,33,0.00,,,0.00,WUHU216HW,2015-07-30 22:30:00,
2015-07-30 17:35:00,85.5,53.8,29.87,WNW,293,2.9,13.4,34,0.00,,,0.00,WUHU216HW,2015-07-30 22:35:00,
2015-07-30 17:40:00,85.0,54.1,29.87,NNE,23,6.5,11.9,35,0.00,,,0.00,WUHU216HW,2015-07-30 22:40:00,
2015-07-30 17:45:00,85.3,53.6,29.87,West,270,13.0,13.0,34,0.00,,,0.00,WUHU216HW,2015-07-30 22:45:00,
2015-07-30 17:50:00,85.7,54.0,29.87,WNW,293,11.4,13.0,34,0.00,,,0.00,WUHU216HW,2015-07-30 22:50:00,
2015-07-30 17:55:00,85.9,54.1,29.86,NNW,338,5.4,13.0,34,0.00,,,0.00,WUHU216HW,2015-07-30 22:55:00,
2015-07-30 18:00:00,85.1,54.3,29.87,WSW,248,5.4,13.0,35,0.00,,,0.00,WUHU216HW,2015-07-30 23:00:00,
2015-07-30 18:05:00,85.5,54.6,29.86,NW,315,4.7,11.9,35,0.00,,,0.00,WUHU216HW,2015-07-30 23:05:00,
2015-07-30 18:10:00,85.9,54.9,29.86,West,270,4.0,11.9,35,0.00,,,0.00,WUHU216HW,2015-07-30 23:10:00,